Time,TemperatureF,DewpointF,PressureIn,WindDirection,WindDirectionDegrees,WindSpeedMPH,WindSpeedGustMPH,Humidity,HourlyPrecipIn,Conditions,Clouds,dailyrainin,SoftwareType,DateUTC
2013-07-08 00:02:00,69.0,65.0,-100.00,SSW,210,2.0,7.0,86,0.00,,,-99.99,,2013-07-08 04:02:00,
2013-07-08 00:12:00,69.0,65.0,-100.00,SW,235,3.0,9.0,87,0.00,,,-99.99,,2013-07-08 04:12:00,
2013-07-08 00:22:00,69.0,65.0,-100.00,WSW,240,7.0,11.0,85,0.00,,,-99.99,,2013-07-08 04:22:00,
2013-07-08 00:33:00,69.0,65.0,-100.00,WSW,240,3.0,9.0,86,0.00,,,-99.99,,2013-07-08 04:33:00,
2013-07-08 00:42:00,69.0,65.0,-100.00,West,280,4.0,7.0,87,0.00,,,-99.99,,2013-07-08 04:42:00,
2013-07-08 00:53:00,68.0,65.0,-100.00,West,270,2.0,6.0,89,0.00,,,-99.99,,2013-07-08 04:53:00,
2013-07-08 01:01:00,68.0,65.0,-100.00,NNW,330,1.0,5.0,91,0.00,,,-99.99,,2013-07-08 05:01:00,
2013-07-08 01:12:00,68.0,65.0,-100.00,NNW,330,1.0,5.0,91,0.00,,,-99.99,,2013-07-08 05:12:00,
2013-07-08 01:22:00,69.0,66.0,-100.00,West,265,3.0,7.0,91,0.55,,,-99.99,,2013-07-08 05:22:00,
2013-07-08 01:33:00,69.0,66.0,-100.00,WSW,240,4.0,7.0,88,0.00,,,-99.99,,2013-07-08 05:33:00,
2013-07-08 01:43:00,69.0,66.0,-100.00,SW,230,1.0,6.0,89,0.55,,,-99.99,,2013-07-08 05:43:00,
2013-07-08 01:53:00,69.0,65.0,-100.00,West,265,3.0,6.0,87,0.00,,,-99.99,,2013-07-08 05:53:00,
2013-07-08 02:01:00,69.0,65.0,-100.00,West,275,1.0,7.0,88,0.55,,,-99.99,,2013-07-08 06:01:00,
2013-07-08 02:12:00,69.0,65.0,-100.00,SW,230,1.0,2.0,90,1.10,,,-99.99,,2013-07-08 06:12:00,
2013-07-08 02:22:00,69.0,65.0,-100.00,SW,215,0.0,4.0,90,0.00,,,-99.99,,2013-07-08 06:22:00,
2013-07-08 02:34:00,68.0,65.0,-100.00,West,280,1.0,2.0,91,0.55,,,-99.99,,2013-07-08 06:34:00,
2013-07-08 02:43:00,68.0,65.0,-100.00,SW,215,0.0,3.0,90,0.00,,,-99.99,,2013-07-08 06:43:00,
2013-07-08 02:53:00,68.0,65.0,-100.00,SW,230,0.0,3.0,91,0.55,,,-99.99,,2013-07-08 06:53:00,
2013-07-08 03:02:00,68.0,65.0,-100.00,South,190,3.0,4.0,91,0.00,,,-99.99,,2013-07-08 07:02:00,
2013-07-08 03:12:00,68.0,65.0,-100.00,SSW,195,0.0,4.0,93,1.10,,,-99.99,,2013-07-08 07:12:00,
2013-07-08 03:22:00,67.0,65.0,-100.00,South,185,5.0,7.0,93,0.00,,,-99.99,,2013-07-08 07:22:00,
2013-07-08 03:34:00,67.0,65.0,-100.00,SSW,200,2.0,7.0,94,1.69,,,-99.99,,2013-07-08 07:34:00,
2013-07-08 03:44:00,67.0,66.0,-100.00,WSW,240,4.0,6.0,94,0.00,,,-99.99,,2013-07-08 07:44:00,
2013-07-08 03:53:00,68.0,66.0,-100.00,South,190,2.0,7.0,93,0.00,,,-99.99,,2013-07-08 07:53:00,
2013-07-08 04:02:00,70.0,66.0,-100.00,SW,225,6.0,11.0,88,0.00,,,-99.99,,2013-07-08 08:02:00,
2013-07-08 04:12:00,69.0,66.0,-100.00,SSW,200,1.0,9.0,88,0.00,,,-99.99,,2013-07-08 08:12:00,
2013-07-08 04:22:00,69.0,66.0,-100.00,SSW,200,1.0,9.0,88,0.00,,,-99.99,,2013-07-08 08:22:00,
2013-07-08 04:33:00,69.0,66.0,-100.00,SSW,200,1.0,9.0,88,0.00,,,-99.99,,2013-07-08 08:33:00,
2013-07-08 04:42:00,69.0,66.0,-100.00,SSW,195,4.0,7.0,91,0.00,,,-99.99,,2013-07-08 08:42:00,
2013-07-08 04:53:00,69.0,66.0,-100.00,SSW,200,2.0,7.0,90,0.00,,,-99.99,,2013-07-08 08:53:00,
2013-07-08 05:02:00,69.0,66.0,-100.00,SSW,195,3.0,6.0,89,0.00,,,-99.99,,2013-07-08 09:02:00,
2013-07-08 05:11:00,69.0,65.0,-100.00,South,185,4.0,7.0,90,0.00,,,-99.99,,2013-07-08 09:11:00,
2013-07-08 05:22:00,69.0,66.0,-100.00,SSW,195,0.0,5.0,90,0.00,,,-99.99,,2013-07-08 09:22:00,
2013-07-08 05:34:00,68.0,66.0,-100.00,South,175,1.0,4.0,91,0.00,,,-99.99,,2013-07-08 09:34:00,
2013-07-08 05:43:00,68.0,66.0,-100.00,East,85,2.0,2.0,92,0.00,,,-99.99,,2013-07-08 09:43:00,
2013-07-08 05:52:00,68.0,66.0,-100.00,SE,145,2.0,4.0,91,0.00,,,-99.99,,2013-07-08 09:52:00,
2013-07-08 06:02:00,68.0,66.0,-100.00,SE,145,2.0,4.0,91,0.00,,,-99.99,,2013-07-08 10:02:00,
2013-07-08 06:11:00,69.0,66.0,-100.00,SSW,195,0.0,3.0,91,0.00,,,-99.99,,2013-07-08 10:11:00,
2013-07-08 06:22:00,69.0,66.0,-100.00,South,175,0.0,4.0,91,0.00,,,-99.99,,2013-07-08 10:22:00,
2013-07-08 06:34:00,69.0,66.0,-100.00,South,180,0.0,4.0,91,0.00,,,-99.99,,2013-07-08 10:34:00,
2013-07-08 06:43:00,69.0,66.0,-100.00,South,190,3.0,6.0,91,0.00,,,-99.99,,2013-07-08 10:43:00,
2013-07-08 06:53:00,68.0,66.0,-100.00,South,175,6.0,7.0,92,0.00,,,-99.99,,2013-07-08 10:53:00,
2013-07-08 07:02:00,68.0,66.0,-100.00,South,180,6.0,7.0,93,0.00,,,-99.99,,2013-07-08 11:02:00,
2013-07-08 07:11:00,68.0,66.0,-100.00,South,180,6.0,7.0,93,0.00,,,-99.99,,2013-07-08 11:11:00,
2013-07-08 07:23:00,68.0,66.0,-100.00,South,180,6.0,7.0,93,0.00,,,-99.99,,2013-07-08 11:23:00,
2013-07-08 07:33:00,68.0,66.0,-100.00,South,185,5.0,7.0,93,0.00,,,-99.99,,2013-07-08 11:33:00,
2013-07-08 07:43:00,69.0,67.0,-100.00,South,185,6.0,8.0,92,0.00,,,-99.99,,2013-07-08 11:43:00,
2013-07-08 07:53:00,70.0,67.0,-100.00,South,185,6.0,9.0,91,0.00,,,-99.99,,2013-07-08 11:53:00,
2013-07-08 08:01:00,70.0,67.0,-100.00,South,185,6.0,8.0,90,0.00,,,-99.99,,2013-07-08 12:01:00,
2013-07-08 08:11:00,71.0,67.0,-100.00,South,185,4.0,9.0,89,0.00,,,-99.99,,2013-07-08 12:11:00,
2013-07-08 08:22:00,71.0,68.0,-100.00,South,185,6.0,11.0,89,0.00,,,-99.99,,2013-07-08 12:22:00,
2013-07-08 08:34:00,71.0,68.0,-100.00,South,185,8.0,12.0,89,0.00,,,-99.99,,2013-07-08 12:34:00,
2013-07-08 08:43:00,72.0,68.0,-100.00,South,190,7.0,11.0,88,0.00,,,-99.99,,2013-07-08 12:43:00,
2013-07-08 08:53:00,72.0,68.0,-100.00,South,190,7.0,11.0,88,0.00,,,-99.99,,2013-07-08 12:53:00,
2013-07-08 09:02:00,73.0,68.0,-100.00,South,190,10.0,12.0,85,0.00,,,-99.99,,2013-07-08 13:02:00,
2013-07-08 09:22:00,74.0,69.0,-100.00,South,185,6.0,11.0,83,0.00,,,-99.99,,2013-07-08 13:22:00,
2013-07-08 09:42:00,75.0,69.0,-100.00,South,180,2.0,12.0,80,0.00,,,-99.99,,2013-07-08 13:42:00,
2013-07-08 09:53:00,75.0,69.0,-100.00,South,180,2.0,12.0,80,0.00,,,-99.99,,2013-07-08 13:53:00,
2013-07-08 10:34:00,77.0,70.0,-100.00,South,190,2.0,13.0,77,0.00,,,-99.99,,2013-07-08 14:34:00,
2013-07-08 10:43:00,77.0,69.0,-100.00,SW,235,4.0,12.0,78,0.00,,,-99.99,,2013-07-08 14:43:00,
2013-07-08 11:02:00,77.0,70.0,-100.00,SSW,205,2.0,11.0,79,0.00,,,-99.99,,2013-07-08 15:02:00,
2013-07-08 11:11:00,76.0,70.0,-100.00,South,185,6.0,12.0,80,0.00,,,-99.99,,2013-07-08 15:11:00,
2013-07-08 11:22:00,77.0,71.0,-100.00,South,190,1.0,12.0,81,0.00,,,-99.99,,2013-07-08 15:22:00,
2013-07-08 11:33:00,77.0,71.0,-100.00,South,190,7.0,11.0,81,0.00,,,-99.99,,2013-07-08 15:33:00,
2013-07-08 11:43:00,78.0,71.0,-100.00,South,190,3.0,9.0,79,0.00,,,-99.99,,2013-07-08 15:43:00,
2013-07-08 12:01:00,79.0,71.0,-100.00,South,190,5.0,10.0,78,0.00,,,-99.99,,2013-07-08 16:01:00,
2013-07-08 12:43:00,81.0,72.0,-100.00,South,170,11.0,16.0,75,0.00,,,-99.99,,2013-07-08 16:43:00,
2013-07-08 13:07:00,81.0,72.0,-100.00,South,185,10.0,16.0,74,0.00,,,-99.99,,2013-07-08 17:07:00,
2013-07-08 13:14:00,81.0,72.0,-100.00,South,185,11.0,16.0,74,0.00,,,-99.99,,2013-07-08 17:14:00,
2013-07-08 13:28:00,82.0,73.0,-100.00,South,180,11.0,17.0,76,0.00,,,-99.99,,2013-07-08 17:28:00,
2013-07-08 13:46:00,82.0,74.0,-100.00,South,185,6.0,17.0,75,0.00,,,-99.99,,2013-07-08 17:46:00,
2013-07-08 14:52:00,81.0,73.0,-100.00,South,185,6.0,17.0,76,0.55,,,-99.99,,2013-07-08 18:52:00,
2013-07-08 15:39:00,81.0,69.0,-100.00,SW,235,6.0,16.0,67,0.00,,,-99.99,,2013-07-08 19:39:00,
2013-07-08 15:53:00,81.0,71.0,-100.00,South,185,12.0,18.0,70,0.00,,,-99.99,,2013-07-08 19:53:00,
2013-07-08 16:14:00,80.0,71.0,-100.00,South,190,13.0,17.0,75,0.00,,,-99.99,,2013-07-08 20:14:00,
2013-07-08 16:22:00,80.0,72.0,-100.00,South,190,9.0,16.0,77,0.00,,,-99.99,,2013-07-08 20:22:00,
2013-07-08 16:44:00,80.0,73.0,-100.00,SSW,195,9.0,13.0,77,0.00,,,-99.99,,2013-07-08 20:44:00,
2013-07-08 17:00:00,80.0,73.0,-100.00,South,180,7.0,16.0,80,0.00,,,-99.99,,2013-07-08 21:00:00,
2013-07-08 17:42:00,79.0,72.0,-100.00,South,175,2.0,9.0,80,0.00,,,-99.99,,2013-07-08 21:42:00,
2013-07-08 17:52:00,79.0,72.0,-100.00,SW,220,2.0,6.0,80,0.00,,,-99.99,,2013-07-08 21:52:00,
2013-07-08 18:01:00,77.0,71.0,-100.00,SSW,200,4.0,15.0,82,0.55,,,-99.99,,2013-07-08 22:01:00,
2013-07-08 18:23:00,74.0,69.0,-100.00,South,180,2.0,7.0,83,0.55,,,-99.99,,2013-07-08 22:23:00,
2013-07-08 18:54:00,76.0,70.0,-100.00,WSW,240,2.0,5.0,80,0.00,,,-99.99,,2013-07-08 22:54:00,
2013-07-08 19:00:00,76.0,70.0,-100.00,West,260,2.0,4.0,80,0.55,,,-99.99,,2013-07-08 23:00:00,
2013-07-08 19:31:00,76.0,72.0,-100.00,South,170,3.0,4.0,87,0.00,,,-99.99,,2013-07-08 23:31:00,
2013-07-08 19:45:00,76.0,72.0,-100.00,South,180,4.0,6.0,88,0.00,,,-99.99,,2013-07-08 23:45:00,
2013-07-08 20:23:00,76.0,71.0,-100.00,WSW,240,0.0,2.0,87,0.00,,,-99.99,,2013-07-09 00:23:00,
2013-07-08 20:42:00,75.0,72.0,-100.00,SE,145,2.0,3.0,89,0.00,,,-99.99,,2013-07-09 00:42:00,
2013-07-08 21:00:00,75.0,72.0,-100.00,SE,135,4.0,5.0,92,0.00,,,-99.99,,2013-07-09 01:00:00,
2013-07-08 21:14:00,75.0,72.0,-100.00,SSE,160,2.0,6.0,91,0.00,,,-99.99,,2013-07-09 01:14:00,
2013-07-08 21:43:00,74.0,72.0,-100.00,SE,140,4.0,4.0,92,0.00,,,-99.99,,2013-07-09 01:43:00,
2013-07-08 22:45:00,73.0,72.0,-100.00,SE,125,5.0,6.0,95,0.00,,,-99.99,,2013-07-09 02:45:00,
2013-07-08 23:23:00,73.0,72.0,-100.00,SSE,165,6.0,8.0,95,0.00,,,-99.99,,2013-07-09 03:23:00,